Location: Tierra del Sol
(32.6128°N, 116.3319°W)
Time: 13:37:53
(UTC-08:00)

Tiangong 1 - Pass Details

Date: 14 October 2017
Orbit: 275 x 301 km, 42.8° (Epoch: 15 December)

Event Time Altitude Azimuth Distance (km) Brightness Sun altitude
Rises 18:27:47 0° 310° (NW) 2,090 5.5 -3.9°
Reaches altitude 10° 18:30:28 10° 338° (NNW) 1,239 3.8 -4.4°
Maximum altitude 18:32:02 14° 12° (NNE) 1,032 3.1 -4.8°
Drops below altitude 10° 18:33:36 10° 47° (NE) 1,218 3.1 -5.1°
Enters shadow 18:34:42 - 63° (ENE) 1,519 3.5 -5.3°
